EST,Max TemperatureF,Mean TemperatureF,Min TemperatureF,Max Dew PointF,MeanDew PointF,Min DewpointF,Max Humidity, Mean Humidity, Min Humidity, Max Sea Level PressureIn, Mean Sea Level PressureIn, Min Sea Level PressureIn, Max VisibilityMiles, Mean VisibilityMiles, Min VisibilityMiles, Max Wind SpeedMPH, Mean Wind SpeedMPH, Max Gust SpeedMPH,PrecipitationIn, CloudCover, Events, WindDirDegrees
2013-2-1,30,26,21,14,8,3,51,44,35,30.12,29.85,29.65,10,10,10,16,10,31,0.00,1,,286
2013-2-2,28,24,19,17,11,5,63,54,43,30.27,30.15,30.06,10,10,9,13,9,23,0.00,3,,251
2013-2-3,32,26,21,21,19,15,81,73,56,30.06,29.86,29.73,10,9,2,13,7,17,0.00,5,Snow,340
2013-2-4,30,27,24,16,9,5,69,49,36,29.96,29.84,29.74,10,10,10,17,10,25,0.00,2,,285
2013-2-5,26,24,21,24,17,4,92,74,41,30.02,29.96,29.92,10,6,2,7,4,,0.00,8,Snow,40
2013-2-6,39,32,26,28,21,4,93,73,36,30.30,30.02,29.91,10,8,2,14,5,23,0.00,5,Snow,313
2013-2-7,30,24,19,14,7,3,65,47,32,30.51,30.45,30.30,10,10,10,15,9,22,0.00,1,,6
2013-2-8,33,29,25,32,27,16,100,86,69,30.43,30.01,29.37,10,4,0,41,15,58,0.24,7,Fog-Snow,65
2013-2-9,17,17,17,7,7,6,65,64,62,30.19,30.16,30.13,10,9,7,23,21,31,0.00,0,,320
2013-2-10,33,24,15,20,10,2,88,60,37,30.39,30.34,30.20,10,10,10,17,9,26,0.00,0,,308
2013-2-11,45,32,19,45,37,14,100,92,72,30.35,29.94,29.62,10,4,0,18,8,30,0.29,6,Fog-Rain,175
2013-2-12,43,36,30,41,30,23,96,71,49,29.90,29.74,29.63,10,10,10,16,8,24,0.00,3,,286
2013-2-13,39,34,30,27,23,20,82,65,50,29.89,29.81,29.67,10,10,10,9,6,,0.00,1,,253
2013-2-14,41,34,28,30,27,18,100,79,40,30.01,29.82,29.69,10,6,0,10,5,16,0.10,3,Fog-Snow,330
2013-2-15,45,39,33,37,34,29,100,87,68,30.04,29.99,29.94,10,6,0,14,5,23,0.00,1,Fog,188
2013-2-16,36,34,30,36,30,21,100,89,67,29.94,29.83,29.65,10,5,0,13,7,22,0.00,8,Fog-Snow,356
2013-2-17,30,24,18,24,12,2,93,65,37,29.69,29.49,29.39,10,4,0,28,20,45,0.00,5,Fog-Snow,318
2013-2-18,30,23,16,5,1,-1,54,40,28,30.20,30.01,29.74,10,10,9,23,17,34,0.00,0,,289
2013-2-19,46,36,25,45,35,6,100,84,41,30.19,29.84,29.60,10,8,2,15,6,23,0.40,5,Rain,185
2013-2-20,42,34,26,40,21,8,96,62,41,29.83,29.68,29.58,10,10,10,18,8,29,0.00,4,,286
2013-2-21,33,28,24,17,13,10,63,53,43,30.18,29.91,29.81,10,10,10,20,13,30,0.00,2,,305
2013-2-22,39,33,27,25,21,17,75,64,53,30.36,30.32,30.21,10,10,10,14,9,22,0.00,7,,360
2013-2-23,37,34,32,36,31,24,100,85,73,30.31,30.09,29.83,10,7,2,13,7,21,0.13,8,Rain-Snow,92
2013-2-24,39,36,32,38,34,30,100,94,87,29.87,29.72,29.62,10,4,1,17,12,26,0.23,8,Rain-Snow,350
2013-2-25,41,36,30,30,29,27,93,79,57,30.24,30.05,29.89,10,9,2,13,8,17,0.00,7,Snow,346
2013-2-26,41,38,34,33,29,25,89,75,55,30.32,30.24,30.10,10,10,10,13,5,20,0.00,5,Rain,105
2013-2-27,43,40,37,43,39,34,100,92,86,30.09,29.73,29.56,10,3,0,29,16,54,0.46,8,Fog-Rain,87
2013-2-28,44,40,35,39,36,34,100,91,76,29.64,29.58,29.52,10,9,1,8,3,,0.00,6,,312